Location: *
(41.3833°N, 2.1667°E)
Time: 05:49:49
(UTC+00:00)

Daily predictions for brighter satellites

Satellite Brightness Start Highest point End
(mag) Time Altitude Azimuth Time Altitude Azimuth Time Altitude Azimuth
CZ-4C R/B 4.4 03:21:53 18° N 03:21:53 18° N 03:23:43 10° NNE
NOSS 3-1 (A) 4.3 03:19:35 67° ENE 03:19:35 67° ENE 03:28:00 10° SE
USA 267 4.0 03:22:42 10° SE 03:26:50 43° SE 03:26:50 43° SE
Cosmos 1943 Rocket 3.7 03:37:57 25° NNE 03:40:01 32° ENE 03:44:55 10° ESE
Lacrosse 5 3.3 03:45:18 35° ENE 03:45:18 35° ENE 03:49:06 10° ESE
ATLAS CENTAUR R/B 4.2 03:52:19 14° NNE 03:52:19 14° NNE 03:52:56 10° NNE
SL-16 R/B 3.4 04:01:36 33° N 04:01:36 33° N 04:04:48 10° NNE
CZ-2C R/B 3.0 03:57:19 10° NNE 04:01:40 57° NE 04:01:40 57° NE
BREEZE-M DEB (TANK) 3.9 04:09:15 39° N 04:09:59 42° NNE 04:20:18 10° E
Cosmos 1727 Rocket 4.5 04:05:07 10° S 04:11:08 57° E 04:17:11 10° NNE
Cosmos 2369 Rocket 3.1 04:06:42 10° NNW 04:12:14 46° ENE 04:17:42 10° SE
H-2A R/B 3.6 04:09:24 10° NNE 04:13:40 45° E 04:15:05 34° SE
Cosmos 1603 4.2 04:13:19 33° S 04:15:45 57° ESE 04:21:19 10° NNE
Cosmos 1339 Rocket 4.3 04:15:29 69° SSW 04:16:17 84° W 04:22:26 10° N
Cosmos 1943 4.1 04:15:34 16° S 04:19:44 46° ESE 04:25:06 10° NE
Cosmos 1743 Rocket 4.0 04:24:12 10° N 04:28:29 58° E 04:32:44 10° SSE
CZ-4B R/B 4.2 04:24:44 10° NNE 04:29:06 72° E 04:30:00 54° SSE
STARLINK-1098 3.9 04:36:27 58° SSE 04:36:35 58° SE 04:40:37 10° ENE
Cosmos 1140 Rocket 4.3 04:32:34 10° S 04:37:36 50° ESE 04:42:40 10° NNE
Cosmos 407 Rocket 3.6 04:35:15 20° S 04:39:02 74° ESE 04:44:20 10° NNE
USA 215 4.5 04:34:12 10° NE 04:39:27 27° NNW 04:41:24 23° NW
Cosmos 1842 Rocket 3.6 04:40:29 63° NW 04:40:29 63° NW 04:44:28 10° N
ADEOS 4.4 04:36:15 10° N 04:39:45 34° NW 04:39:45 34° NW
STARLINK-1123 3.8 04:41:07 61° SSE 04:41:25 64° SE 04:45:28 10° ENE
Meteor 2-3 Rocket 3.6 04:37:13 10° NNW 04:42:59 78° W 04:48:47 10° S
STARLINK-1097 3.7 04:45:44 62° S 04:46:15 70° SE 04:50:19 10° NE
BREEZE M DEB (TANK) 4.3 04:45:29 25° N 04:46:20 27° NNE 04:51:45 10° ENE
Cosmos 921 Rocket 3.9 04:43:15 10° N 04:47:34 50° ENE 04:51:46 10° SE
GEOS 3 Rocket 3.6 04:42:30 10° NE 04:47:51 86° NW 04:50:29 31° SW
Cosmos 1484 Rocket 2.9 04:44:58 10° NNE 04:48:57 78° ESE 04:52:35 12° S
STARLINK-1099 3.6 04:50:22 59° SSW 04:51:02 77° SE 04:55:08 10° NE
BREEZE M DEB (TANK) 3.8 04:44:00 19° WNW 04:52:43 59° SW 04:56:41 10° SSE
STARLINK-1070 4.2 04:54:21 30° NNE 04:54:21 30° NNE 04:56:08 10° NE
STARLINK-1124 4.5 04:54:42 26° NNE 04:54:42 26° NNE 04:56:20 10° NE
STARLINK-1066 4.2 04:54:55 30° NNE 04:54:55 30° NNE 04:56:42 10° NE
STARLINK-1081 4.2 04:55:08 30° NNE 04:55:08 30° NNE 04:56:56 10° NE
STARLINK-1069 4.2 04:55:34 30° NNE 04:55:34 30° NNE 04:57:22 10° NE
STARLINK-1085 4.2 04:55:46 30° NNE 04:55:46 30° NNE 04:57:35 10° NE
STARLINK-1086 4.2 04:56:01 30° NNE 04:56:01 30° NNE 04:57:50 10° NE
STARLINK-1095 4.2 04:56:13 30° NNE 04:56:13 30° NNE 04:58:02 10° NE
STARLINK-1077 4.2 04:56:27 30° NNE 04:56:27 30° NNE 04:58:16 10° NE
STARLINK-1075 4.1 04:56:39 31° NNE 04:56:39 31° NNE 04:58:30 10° NE
STARLINK-1093 4.1 04:56:52 31° NNE 04:56:52 31° NNE 04:58:43 10° NE
STARLINK-1104 3.5 04:55:03 54° SW 04:55:54 84° SE 05:00:01 10° NE
STARLINK-1074 4.1 04:57:07 31° NNE 04:57:07 31° NNE 04:58:58 10° NE
STARLINK-1087 4.1 04:57:17 31° NNE 04:57:17 31° NNE 04:59:09 10° NE
STARLINK-1088 4.1 04:57:30 31° NNE 04:57:30 31° NNE 04:59:21 10° NE
STARLINK-1115 4.1 04:57:44 31° NNE 04:57:44 31° NNE 04:59:37 10° NE
STARLINK-1076 4.1 04:57:57 31° NNE 04:57:57 31° NNE 04:59:51 10° NE
STARLINK-1092 4.1 04:58:10 31° NNE 04:58:10 31° NNE 05:00:04 10° NE
STARLINK-1080 4.1 04:58:23 31° NNE 04:58:23 31° NNE 05:00:17 10° NE
Cosmos 2221 2.4 04:56:38 47° SW 04:57:29 58° W 05:01:44 10° N
STARLINK-1090 4.1 04:58:37 31° NNE 04:58:37 31° NNE 05:00:32 10° NE
STARLINK-1089 4.1 04:58:51 31° NNE 04:58:51 31° NNE 05:00:46 10° NE
STARLINK-1107 4.1 04:59:01 31° NNE 04:59:01 31° NNE 05:00:56 10° NE
Cosmos 614 Rocket 3.9 04:55:34 28° SW 04:58:17 65° WNW 05:03:28 10° NNE
STARLINK-1109 4.0 04:59:14 31° NNE 04:59:14 31° NNE 05:01:11 10° NE
COSMO-SKYMED 1 2.8 04:54:10 10° SSE 04:58:29 69° ENE 05:02:48 10° N
STARLINK-1091 4.0 04:59:29 31° NNE 04:59:29 31° NNE 05:01:25 10° NE
STARLINK-1072 4.0 04:59:44 31° NNE 04:59:44 31° NNE 05:01:41 10° NE
STARLINK-1096 4.0 04:59:53 31° NNE 04:59:53 31° NNE 05:01:49 10° NE
STARLINK-1079 4.0 05:00:06 32° N 05:00:06 32° N 05:02:04 10° NE
STARLINK-1116 4.0 05:00:20 32° N 05:00:20 32° N 05:02:18 10° NE
STARLINK-1094 4.0 05:00:45 32° N 05:00:45 32° N 05:02:44 10° NE
STARLINK-1117 4.0 05:00:58 32° N 05:00:58 32° N 05:02:58 10° NE
STARLINK-1078 4.0 05:01:12 32° N 05:01:12 32° N 05:03:11 10° NE
STARLINK-1108 4.0 05:01:25 32° N 05:01:25 32° N 05:03:25 10° NE
STARLINK-1144 3.5 04:59:40 49° SW 05:00:44 89° NW 05:04:50 10° NE
STARLINK-1071 4.0 05:01:37 32° N 05:01:37 32° N 05:03:36 10° NE
STARLINK-1110 4.0 05:01:53 32° N 05:01:53 32° N 05:03:54 10° NE
STARLINK-1122 4.0 05:02:16 32° N 05:02:16 32° N 05:04:18 10° NE
STARLINK-1126 3.9 05:02:29 32° N 05:02:29 32° N 05:04:31 10° NE
STARLINK-1082 3.9 05:02:43 32° N 05:02:43 32° N 05:04:45 10° NE
STARLINK-1100 3.9 05:02:56 32° N 05:02:56 32° N 05:04:59 10° NE
STARLINK-1083 3.9 05:03:08 32° N 05:03:08 32° N 05:05:12 10° NE
STARLINK-1125 3.9 05:03:21 32° N 05:03:21 32° N 05:05:26 10° NE
Cosmos 1190 Rocket 3.9 04:58:48 10° SSW 05:04:03 78° WNW 05:09:24 10° NNE
STARLINK-1128 3.4 05:04:15 45° WSW 05:05:23 79° NW 05:09:27 10° NE
STARLINK-1103 3.5 05:04:22 43° WSW 05:05:37 82° NW 05:09:43 10° NE
METEOR-M 4.3 05:01:30 10° NNE 05:06:52 75° ESE 05:12:11 10° S
CZ-4C R/B 4.4 05:07:09 10° NW 05:09:06 11° NNW 05:11:08 10° N
PSLV R/B 3.6 05:05:37 10° NNE 05:09:23 87° E 05:13:12 10° SSW
STARLINK-1113 3.5 05:08:39 40° WSW 05:10:00 74° NW 05:14:04 10° NE
Meteor 1-27 4.3 05:04:45 10° SSW 05:10:06 49° WNW 05:15:30 10° N
STARLINK-1101 3.5 05:08:58 39° WSW 05:10:25 75° NW 05:14:31 10° NE
USA 267 4.2 05:07:26 10° S 05:12:41 26° SW 05:14:14 24° WSW
Cosmos 1238 Rocket 4.0 05:07:04 10° N 05:13:02 65° E 05:17:59 10° SSE
BREEZE-M DEB (TANK) 4.0 05:10:18 15° SSW 05:13:06 47° SE 05:18:11 10° ENE
Cosmos 1802 Rocket 4.2 05:06:40 10° N 05:13:07 77° E 05:19:32 10° SSE
BREEZE-M DEB (TANK) 3.6 05:06:42 10° SW 05:13:57 59° SSE 05:16:47 10° ENE
STARLINK-1119 3.5 05:13:15 36° WSW 05:14:46 68° NW 05:18:47 10° NE
Cosmos 1238 4.1 05:14:46 45° WSW 05:15:19 53° W 05:18:20 10° N
STARLINK-1102 3.5 05:14:08 34° WSW 05:15:45 68° NW 05:19:48 10° NE
Meteor 1-31 Rocket 3.8 05:14:03 10° N 05:16:44 27° NW 05:16:44 27° NW
STARLINK-1114 3.6 05:17:35 32° WSW 05:19:20 63° NW 05:23:21 10° NE
STARLINK-1111 3.6 05:18:35 30° WSW 05:20:23 63° NW 05:24:26 10° NE
Meteor 2-2 Rocket 4.4 05:15:03 10° SSW 05:21:00 63° WNW 05:27:00 10° N
Cosmos 676 Rocket 4.0 05:16:28 10° SSW 05:21:48 90° ESE 05:27:10 10° NNE
SKYMED 3 4.5 05:18:15 10° S 05:22:33 64° W 05:26:53 10° NNW
Cosmos 1943 Rocket 2.6 05:19:34 14° NW 05:23:44 35° WSW 05:28:41 10° S
CZ-4B R/B 3.4 05:20:53 10° N 05:24:04 29° WNW 05:24:17 28° WNW
STARLINK-1130 (DARKSAT) 3.7 05:22:19 28° WSW 05:24:13 57° NW 05:28:12 10° NE
STARLINK-1073 3.7 05:23:01 27° WSW 05:25:04 58° NNW 05:29:07 10° NE
Lacrosse 5 2.3 05:24:33 22° WNW 05:27:23 41° SW 05:32:06 10° SSE
STARLINK-1084 3.8 05:26:33 25° W 05:28:40 54° NNW 05:32:40 10° NE
STARLINK-1121 3.8 05:27:42 24° WSW 05:29:57 54° NNW 05:34:00 10° NE
STARLINK-1106 3.9 05:32:28 21° W 05:34:55 50° NNW 05:38:56 10° NE
ALOS 2.4 05:31:02 10° N 05:35:34 51° WNW 05:40:05 10° SSW
Cosmos 2016 Rocket 4.0 05:29:54 10° N 05:36:11 85° W 05:42:31 10° S
Cosmos 1869 4.1 05:36:19 10° SW 05:39:47 28° WNW 05:43:14 10° NNW
Cosmos 1400 Rocket 2.8 05:35:48 10° S 05:39:48 87° W 05:43:54 10° N
STARLINK-1112 4.0 05:37:14 19° W 05:39:54 46° NNW 05:43:53 10° NE
CZ-2C R/B 4.0 05:36:59 10° NNW 05:40:06 16° WNW 05:41:04 16° WNW
ISS -0.9 05:40:20 10° S 05:42:41 18° SE 05:45:02 10° E
STARLINK-1118 4.4 05:42:59 14° NW 05:43:27 15° NNW 05:45:00 10° NNE
SL-16 R/B 4.1 05:43:56 10° NW 05:44:37 10° NW 05:45:19 10° NW
FENGYUN 3A 3.9 05:40:14 10° N 05:45:28 49° WNW 05:50:40 10° SW
ATLAS 2AS CENTAUR R/B 4.3 05:38:52 10° NNW 05:45:41 33° NE 05:51:59 10° ESE
ADEOS Rocket 3.4 05:39:39 10° SSE 05:45:49 79° ENE 05:52:48 10° N
NOAA 6 4.0 05:40:41 10° NNE 05:45:53 86° WNW 05:51:02 10° SSW
Cosmos 1633 3.1 05:42:39 10° NNW 05:45:59 34° W 05:49:19 10° SSW
Sich 1 3.0 05:41:56 10° NNW 05:46:12 64° W 05:50:27 10° S
Cosmos 1805 Rocket 3.8 05:42:13 10° NNW 05:46:21 45° W 05:50:28 10° SSW
SKYMED 2 4.2 05:42:41 10° SSW 05:46:38 34° W 05:50:37 10° NNW
Cosmos 2084 4.0 05:44:05 10° WSW 05:48:23 43° NW 05:52:40 10° NNE
H-2A R/B 4.0 05:45:47 10° NNW 05:48:48 18° WNW 05:51:40 11° WSW
Cosmos 2233 Rocket 4.5 05:47:06 10° N 05:53:22 68° E 05:59:38 10° SSE
Cosmos 2369 Rocket 3.2 05:51:19 10° NW 05:55:56 26° WSW 06:00:31 10° SSW
H-2A R/B 3.1 05:54:06 10° NNE 05:57:50 67° E 06:01:31 10° S
Aureole 2 Rocket 4.0 05:57:40 12° WNW 05:58:54 14° W 06:00:45 10° SW
Cosmos 1943 4.1 05:59:17 10° WSW 06:03:58 27° NW 06:08:43 10° N
Cosmos 1656 Rocket 4.0 05:59:02 10° NW 06:04:28 48° WSW 06:09:53 10° S
DELTA 2 R/B (1) 3.9 06:01:38 10° WSW 06:07:10 66° S 06:12:41 10° E
Okean O Rocket 1.8 06:04:27 10° N 06:08:42 50° WNW 06:12:54 10° SSW
Shenzhou-11 Module 1.8 06:06:07 10° W 06:08:43 60° N 06:11:20 10° E
Cosmos 1151 Rocket 3.0 06:05:26 10° SSW 06:09:44 77° W 06:14:06 10° N
SMAP 3.3 06:10:13 10° NNE 06:14:54 81° ESE 06:19:34 10° S
CZ-4B R/B 3.3 06:11:17 10° N 06:16:27 53° WNW 06:21:34 10° SSW
